| time (UTC) | temp F | wind direction | speed MPH | gust MPH | rain 1hr in | rain 24hr in | rain mn in | humidity % | barometer mb |
| 20260505041320 | 72 | 114 | 2.0 | 8.0 | 0.00 | 0.00 | 0.00 | 79 | 1010.5 |
| 20260505041316 | 72 | 130 | 2.0 | 8.0 | 0.00 | 0.00 | 0.00 | 79 | 1010.5 |
| 20260505035713 | 73 | 130 | 1.0 | 4.0 | 0.00 | 0.00 | 0.00 | 78 | 1010.5 |
| 20260505035709 | 72 | 109 | 1.0 | 4.0 | 0.00 | 0.00 | 0.00 | 79 | 1010.5 |
| 20260505035314 | 73 | 132 | 1.0 | 7.0 | 0.00 | 0.00 | 0.00 | 78 | 1010.4 |
| 20260505034210 | 73 | 151 | 2.0 | 7.0 | 0.00 | 0.00 | 0.00 | 78 | 1010.4 |
| 20260505033710 | 73 | 117 | 1.0 | 7.0 | 0.00 | 0.00 | 0.00 | 77 | 1010.3 |
| 20260505033210 | 73 | 153 | 1.0 | 7.0 | 0.00 | 0.00 | 0.00 | 77 | 1010.4 |
| 20260505032710 | 73 | 128 | 1.0 | 5.0 | 0.00 | 0.00 | 0.00 | 77 | 1010.3 |
| 20260505032210 | 73 | 141 | 1.0 | 5.0 | 0.00 | 0.00 | 0.00 | 76 | 1010.3 |
| 20260505031710 | 73 | 130 | 1.0 | 5.0 | 0.00 | 0.00 | 0.00 | 76 | 1010.2 |
| 20260505031210 | 74 | 134 | 1.0 | 5.0 | 0.00 | 0.00 | 0.00 | 76 | 1010.2 |
| 20260505030709 | 74 | 115 | 0.0 | 4.0 | 0.00 | 0.00 | 0.00 | 75 | 1010.2 |
| 20260505030210 | 74 | 154 | 0.0 | 4.0 | 0.00 | 0.00 | 0.00 | 74 | 1010.3 |
| 20260505025710 | 74 | 133 | 0.0 | 2.0 | 0.00 | 0.00 | 0.00 | 74 | 1010.3 |
| 20260505025214 | 75 | 118 | 1.0 | 6.0 | 0.00 | 0.00 | 0.00 | 73 | 1010.4 |
| 20260505025209 | 74 | 155 | 0.0 | 4.0 | 0.00 | 0.00 | 0.00 | 73 | 1010.3 |
| 20260505024214 | 75 | 131 | 0.0 | 2.0 | 0.00 | 0.00 | 0.00 | 72 | 1010.3 |
| 20260505024210 | 75 | 123 | 1.0 | 6.0 | 0.00 | 0.00 | 0.00 | 73 | 1010.4 |
| 20260505023208 | 75 | 129 | 0.0 | 1.0 | 0.00 | 0.00 | 0.00 | 71 | 1010.3 |
| 20260505022707 | 75 | 134 | 0.0 | 1.0 | 0.00 | 0.00 | 0.00 | 71 | 1010.2 |
| 20260505022208 | 75 | 134 | 0.0 | 2.0 | 0.00 | 0.00 | 0.00 | 71 | 1010.1 |
| 20260505021708 | 76 | 134 | 0.0 | 2.0 | 0.00 | 0.00 | 0.00 | 70 | 1010.1 |
| 20260505021208 | 76 | 139 | 0.0 | 2.0 | 0.00 | 0.00 | 0.00 | 70 | 1010.2 |
| 20260505020708 | 76 | 138 | 1.0 | 4.0 | 0.00 | 0.00 | 0.00 | 70 | 1010.2 |
| 20260505020208 | 76 | 159 | 1.0 | 4.0 | 0.00 | 0.00 | 0.00 | 69 | 1010.0 |
| 20260505015708 | 76 | 153 | 1.0 | 4.0 | 0.00 | 0.00 | 0.00 | 69 | 1009.8 |
| 20260505015212 | 76 | 171 | 1.0 | 5.0 | 0.00 | 0.00 | 0.00 | 68 | 1009.7 |
| 20260505015208 | 76 | 155 | 1.0 | 5.0 | 0.00 | 0.00 | 0.00 | 69 | 1009.7 |
| 20260505014206 | 77 | 144 | 1.0 | 5.0 | 0.00 | 0.00 | 0.00 | 68 | 1009.8 |
| 20260505013706 | 77 | 150 | 2.0 | 5.0 | 0.00 | 0.00 | 0.00 | 68 | 1009.9 |
| 20260505013207 | 77 | 165 | 2.0 | 6.0 | 0.00 | 0.00 | 0.00 | 67 | 1009.8 |
| 20260505012706 | 77 | 119 | 3.0 | 6.0 | 0.00 | 0.00 | 0.00 | 67 | 1009.8 |
| 20260505012206 | 78 | 157 | 3.0 | 6.0 | 0.00 | 0.00 | 0.00 | 66 | 1009.7 |
| 20260505011710 | 78 | 175 | 2.0 | 8.0 | 0.00 | 0.00 | 0.00 | 65 | 1009.7 |
| 20260505011705 | 78 | 139 | 2.0 | 6.0 | 0.00 | 0.00 | 0.00 | 66 | 1009.7 |
| 20260505010705 | 79 | 173 | 3.0 | 8.0 | 0.00 | 0.00 | 0.00 | 64 | 1009.7 |
| 20260505010204 | 79 | 139 | 4.0 | 8.0 | 0.00 | 0.00 | 0.00 | 64 | 1009.7 |
| 20260505005705 | 79 | 176 | 4.0 | 9.0 | 0.00 | 0.00 | 0.00 | 63 | 1009.7 |
| 20260505005204 | 80 | 142 | 3.0 | 9.0 | 0.00 | 0.00 | 0.00 | 63 | 1009.7 |
| 20260505004704 | 80 | 136 | 4.0 | 9.0 | 0.00 | 0.00 | 0.00 | 62 | 1009.7 |
| 20260505004204 | 80 | 150 | 4.0 | 10.0 | 0.00 | 0.00 | 0.00 | 61 | 1009.6 |
| 20260505003708 | 81 | 155 | 4.0 | 12.0 | 0.00 | 0.00 | 0.00 | 60 | 1009.4 |
| 20260505003704 | 80 | 157 | 4.0 | 12.0 | 0.00 | 0.00 | 0.00 | 61 | 1009.6 |
| 20260505002706 | 81 | 138 | 5.0 | 10.0 | 0.00 | 0.00 | 0.00 | 61 | 1009.3 |
| 20260505002702 | 81 | 161 | 4.0 | 10.0 | 0.00 | 0.00 | 0.00 | 61 | 1009.4 |
| 20260505001700 | 81 | 148 | 6.0 | 13.0 | 0.00 | 0.00 | 0.00 | 60 | 1009.5 |
| 20260505001204 | 82 | 148 | 5.0 | 12.0 | 0.00 | 0.00 | 0.00 | 59 | 1009.6 |
| 20260505001200 | 81 | 136 | 6.0 | 13.0 | 0.00 | 0.00 | 0.00 | 59 | 1009.6 |
| 20260505000200 | 82 | 170 | 4.0 | 9.0 | 0.00 | 0.00 | 0.00 | 60 | 1009.6 |
| 20260504235704 | 82 | 135 | 5.0 | 13.0 | 0.00 | 0.00 | 0.00 | 59 | 1009.6 |
| 20260504235700 | 82 | 164 | 4.0 | 10.0 | 0.00 | 0.00 | 0.00 | 59 | 1009.7 |
| 20260504234704 | 83 | 166 | 5.0 | 13.0 | 0.00 | 0.00 | 0.00 | 57 | 1009.9 |
| 20260504234700 | 82 | 145 | 6.0 | 13.0 | 0.00 | 0.00 | 0.00 | 59 | 1009.8 |
| 20260504234305 | 83 | 57 | 4.0 | 13.0 | 0.00 | 0.00 | 0.00 | 57 | 1009.9 |
| 20260504233202 | 83 | 110 | 4.0 | 13.0 | 0.00 | 0.00 | 0.00 | 58 | 1010.0 |
| 20260504233158 | 82 | 157 | 4.0 | 12.0 | 0.00 | 0.00 | 0.00 | 58 | 1010.0 |
| 20260504232158 | 82 | 132 | 4.0 | 11.0 | 0.00 | 0.00 | 0.00 | 59 | 1009.9 |
| 20260504231702 | 82 | 105 | 5.0 | 11.0 | 0.00 | 0.00 | 0.00 | 58 | 1010.1 |
| 20260504231658 | 82 | 160 | 5.0 | 11.0 | 0.00 | 0.00 | 0.00 | 58 | 1010.0 |
| 20260504230658 | 83 | 169 | 4.0 | 10.0 | 0.00 | 0.00 | 0.00 | 58 | 1010.2 |
| 20260504230158 | 83 | 126 | 4.0 | 10.0 | 0.00 | 0.00 | 0.00 | 58 | 1010.2 |
| 20260504225658 | 82 | 227 | 4.0 | 11.0 | 0.00 | 0.00 | 0.00 | 58 | 1010.2 |
| 20260504225158 | 82 | 132 | 5.0 | 11.0 | 0.00 | 0.00 | 0.00 | 59 | 1010.4 |
| 20260504224700 | 82 | 186 | 5.0 | 10.0 | 0.00 | 0.00 | 0.00 | 59 | 1010.5 |
| 20260504224655 | 82 | 116 | 4.0 | 10.0 | 0.00 | 0.00 | 0.00 | 59 | 1010.6 |
| 20260504223653 | 83 | 137 | 3.0 | 10.0 | 0.00 | 0.00 | 0.00 | 58 | 1010.7 |
| 20260504223152 | 82 | 152 | 5.0 | 11.0 | 0.00 | 0.00 | 0.00 | 59 | 1010.7 |
| 20260504222652 | 82 | 159 | 7.0 | 13.0 | 0.00 | 0.00 | 0.00 | 59 | 1010.7 |
| 20260504222152 | 82 | 234 | 7.0 | 13.0 | 0.00 | 0.00 | 0.00 | 58 | 1010.7 |
| 20260504221652 | 82 | 119 | 7.0 | 14.0 | 0.00 | 0.00 | 0.00 | 59 | 1010.6 |
| 20260504221153 | 81 | 142 | 7.0 | 14.0 | 0.00 | 0.00 | 0.00 | 59 | 1010.6 |
| 20260504220652 | 81 | 159 | 6.0 | 13.0 | 0.00 | 0.00 | 0.00 | 59 | 1010.7 |
| 20260504220152 | 82 | 179 | 6.0 | 11.0 | 0.00 | 0.00 | 0.00 | 59 | 1010.8 |
| 20260504215652 | 81 | 182 | 6.0 | 11.0 | 0.00 | 0.00 | 0.00 | 60 | 1010.7 |
| 20260504215152 | 81 | 121 | 5.0 | 12.0 | 0.00 | 0.00 | 0.00 | 61 | 1010.7 |
| 20260504214650 | 81 | 163 | 5.0 | 12.0 | 0.00 | 0.00 | 0.00 | 59 | 1010.7 |
| 20260504214150 | 81 | 144 | 6.0 | 19.0 | 0.00 | 0.00 | 0.00 | 60 | 1010.7 |
| 20260504213648 | 81 | 166 | 6.0 | 19.0 | 0.00 | 0.00 | 0.00 | 59 | 1010.9 |
| 20260504213148 | 81 | 179 | 6.0 | 10.0 | 0.00 | 0.00 | 0.00 | 59 | 1011.0 |
| 20260504212649 | 81 | 145 | 5.0 | 10.0 | 0.00 | 0.00 | 0.00 | 61 | 1011.0 |
| 20260504212148 | 80 | 190 | 5.0 | 11.0 | 0.00 | 0.00 | 0.00 | 62 | 1011.1 |
| 20260504211648 | 80 | 231 | 6.0 | 11.0 | 0.00 | 0.00 | 0.00 | 61 | 1011.3 |
| 20260504211147 | 80 | 169 | 5.0 | 11.0 | 0.00 | 0.00 | 0.00 | 63 | 1011.4 |
| 20260504210646 | 80 | 194 | 5.0 | 12.0 | 0.00 | 0.00 | 0.00 | 62 | 1011.6 |
| 20260504210149 | 80 | 123 | 5.0 | 11.0 | 0.00 | 0.00 | 0.00 | 62 | 1011.8 |
| 20260504210145 | 80 | 22 | 5.0 | 12.0 | 0.00 | 0.00 | 0.00 | 61 | 1011.5 |
| 20260504205143 | 79 | 147 | 6.0 | 15.0 | 0.00 | 0.00 | 0.00 | 63 | 1012.0 |
| 20260504204642 | 79 | 135 | 7.0 | 15.0 | 0.00 | 0.00 | 0.00 | 63 | 1011.8 |
| 20260504204142 | 79 | 167 | 7.0 | 14.0 | 0.00 | 0.00 | 0.00 | 64 | 1012.0 |
| 20260504203642 | 79 | 193 | 6.0 | 14.0 | 0.00 | 0.00 | 0.00 | 63 | 1012.1 |
| 20260504203142 | 79 | 136 | 5.0 | 12.0 | 0.00 | 0.00 | 0.00 | 64 | 1012.2 |
| 20260504202640 | 79 | 142 | 6.0 | 14.0 | 0.00 | 0.00 | 0.00 | 63 | 1012.3 |
| 20260504202139 | 79 | 138 | 6.0 | 14.0 | 0.00 | 0.00 | 0.00 | 62 | 1012.4 |
| 20260504201638 | 79 | 165 | 7.0 | 12.0 | 0.00 | 0.00 | 0.00 | 62 | 1012.5 |
| 20260504201139 | 79 | 147 | 6.0 | 15.0 | 0.00 | 0.00 | 0.00 | 62 | 1012.4 |
| 20260504200638 | 79 | 196 | 6.0 | 15.0 | 0.00 | 0.00 | 0.00 | 63 | 1012.5 |
| 20260504200136 | 78 | 242 | 6.0 | 13.0 | 0.00 | 0.00 | 0.00 | 65 | 1012.6 |
| 20260504195637 | 78 | 196 | 7.0 | 12.0 | 0.00 | 0.00 | 0.00 | 65 | 1012.7 |
| 20260504195136 | 79 | 178 | 6.0 | 12.0 | 0.00 | 0.00 | 0.00 | 64 | 1012.8 |
| 20260504194636 | 79 | 161 | 6.0 | 11.0 | 0.00 | 0.00 | 0.00 | 63 | 1012.9 |
| 20260504194136 | 79 | 161 | 6.0 | 13.0 | 0.00 | 0.00 | 0.00 | 63 | 1012.9 |
| 20260504193640 | 78 | 183 | 6.0 | 12.0 | 0.00 | 0.00 | 0.00 | 65 | 1013.0 |
| 20260504193636 | 78 | 186 | 6.0 | 13.0 | 0.00 | 0.00 | 0.00 | 65 | 1012.9 |
| 20260504192636 | 78 | 193 | 6.0 | 12.0 | 0.00 | 0.00 | 0.00 | 64 | 1013.0 |
| 20260504192141 | 78 | 150 | 6.0 | 13.0 | 0.00 | 0.00 | 0.00 | 64 | 1013.1 |
| 20260504192137 | 78 | 167 | 5.0 | 11.0 | 0.00 | 0.00 | 0.00 | 65 | 1013.1 |
| 20260504191136 | 78 | 167 | 7.0 | 14.0 | 0.00 | 0.00 | 0.00 | 63 | 1013.2 |
| 20260504190637 | 79 | 171 | 6.0 | 14.0 | 0.00 | 0.00 | 0.00 | 63 | 1013.1 |
| 20260504190136 | 78 | 217 | 6.0 | 14.0 | 0.00 | 0.00 | 0.00 | 63 | 1013.1 |
| 20260504185641 | 78 | 168 | 7.0 | 16.0 | 0.00 | 0.00 | 0.00 | 65 | 1013.2 |
| 20260504185637 | 78 | 152 | 7.0 | 16.0 | 0.00 | 0.00 | 0.00 | 64 | 1013.3 |
| 20260504184634 | 78 | 200 | 6.0 | 14.0 | 0.00 | 0.00 | 0.00 | 65 | 1013.2 |
| 20260504184132 | 78 | 157 | 7.0 | 15.0 | 0.00 | 0.00 | 0.00 | 66 | 1013.4 |
| 20260504183635 | 77 | 233 | 7.0 | 16.0 | 0.00 | 0.00 | 0.00 | 66 | 1013.7 |
| 20260504183631 | 77 | 176 | 7.0 | 15.0 | 0.00 | 0.00 | 0.00 | 66 | 1013.5 |
| 20260504182630 | 77 | 162 | 8.0 | 16.0 | 0.00 | 0.00 | 0.00 | 66 | 1013.8 |
| 20260504182131 | 77 | 159 | 7.0 | 12.0 | 0.00 | 0.00 | 0.00 | 66 | 1013.8 |
| 20260504181630 | 78 | 165 | 5.0 | 11.0 | 0.00 | 0.00 | 0.00 | 66 | 1013.6 |
| 20260504181130 | 77 | 226 | 5.0 | 13.0 | 0.00 | 0.00 | 0.00 | 66 | 1013.7 |
| 20260504180629 | 77 | 80 | 6.0 | 13.0 | 0.00 | 0.00 | 0.00 | 66 | 1014.1 |
| 20260504180128 | 77 | 153 | 6.0 | 14.0 | 0.00 | 0.00 | 0.00 | 65 | 1014.2 |
| 20260504175627 | 77 | 133 | 7.0 | 14.0 | 0.00 | 0.00 | 0.00 | 66 | 1014.0 |
| 20260504175126 | 77 | 193 | 7.0 | 14.0 | 0.00 | 0.00 | 0.00 | 66 | 1014.1 |
| 20260504174626 | 76 | 231 | 7.0 | 14.0 | 0.00 | 0.00 | 0.00 | 69 | 1014.0 |
| 20260504174131 | 76 | 145 | 7.0 | 13.0 | 0.00 | 0.00 | 0.00 | 67 | 1014.2 |
| 20260504174126 | 76 | 150 | 8.0 | 13.0 | 0.00 | 0.00 | 0.00 | 68 | 1014.1 |
| 20260504173130 | 76 | 169 | 6.0 | 13.0 | 0.00 | 0.00 | 0.00 | 70 | 1014.3 |
| 20260504173126 | 76 | 154 | 6.0 | 13.0 | 0.00 | 0.00 | 0.00 | 67 | 1014.3 |
| 20260504172127 | 76 | 161 | 7.0 | 15.0 | 0.00 | 0.00 | 0.00 | 68 | 1014.5 |
| 20260504171626 | 76 | 148 | 7.0 | 15.0 | 0.00 | 0.00 | 0.00 | 68 | 1014.5 |
| 20260504171126 | 76 | 235 | 6.0 | 13.0 | 0.00 | 0.00 | 0.00 | 69 | 1014.5 |
| 20260504170627 | 76 | 170 | 6.0 | 13.0 | 0.00 | 0.00 | 0.00 | 69 | 1014.6 |
| 20260504170122 | 76 | 178 | 7.0 | 12.0 | 0.00 | 0.00 | 0.00 | 69 | 1014.6 |
| 20260504160115 | 73 | 157 | 6.0 | 14.0 | 0.00 | 0.00 | 0.00 | 72 | 1015.0 |
| 20260504151107 | 69 | 168 | 6.0 | 13.0 | 0.00 | 0.00 | 0.00 | 79 | 1015.6 |
| 20260504150604 | 69 | 89 | 5.0 | 11.0 | 0.00 | 0.00 | 0.00 | 78 | 1015.6 |
| 20260504141102 | 66 | 157 | 5.0 | 13.0 | 0.00 | 0.00 | 0.00 | 79 | 1015.6 |
| 20260504140603 | 66 | 171 | 4.0 | 9.0 | 0.00 | 0.00 | 0.00 | 79 | 1015.5 |
| 20260504130602 | 64 | 146 | 1.0 | 5.0 | 0.00 | 0.00 | 0.00 | 80 | 1015.4 |
| 20260504110602 | 62 | 165 | 0.0 | 2.0 | 0.00 | 0.00 | 0.00 | 80 | 1015.0 |
| 20260504110558 | 62 | 165 | 0.0 | 2.0 | 0.00 | 0.00 | 0.00 | 81 | 1014.8 |
| 20260504100554 | 63 | 136 | 2.0 | 6.0 | 0.00 | 0.00 | 0.00 | 79 | 1015.2 |
| 20260504081552 | 64 | 155 | 4.0 | 8.0 | 0.00 | 0.00 | 0.00 | 76 | 1015.8 |
| 20260504081548 | 64 | 155 | 3.0 | 8.0 | 0.00 | 0.00 | 0.00 | 77 | 1015.9 |
| 20260504081152 | 64 | 143 | 3.0 | 7.0 | 0.00 | 0.00 | 0.00 | 76 | 1015.9 |
| 20260504045534 | 67 | 147 | 2.0 | 7.0 | 0.00 | 0.00 | 0.00 | 67 | 1017.7 |
| 20260504045034 | 67 | 150 | 3.0 | 7.0 | 0.00 | 0.00 | 0.00 | 66 | 1017.6 |
| 20260504044534 | 67 | 143 | 3.0 | 10.0 | 0.00 | 0.00 | 0.00 | 66 | 1017.6 |
| 20260504044034 | 67 | 134 | 3.0 | 10.0 | 0.00 | 0.00 | 0.00 | 65 | 1017.8 |
| 20260504043534 | 67 | 111 | 2.0 | 9.0 | 0.00 | 0.00 | 0.00 | 65 | 1017.6 |
| 20260504043034 | 67 | 83 | 2.0 | 9.0 | 0.00 | 0.00 | 0.00 | 65 | 1017.7 |
| 20260504042534 | 67 | 96 | 2.0 | 7.0 | 0.00 | 0.00 | 0.00 | 64 | 1017.7 |
| 20260504042035 | 67 | 86 | 2.0 | 8.0 | 0.00 | 0.00 | 0.00 | 64 | 1017.7 |